When you browse on this site, cookies collect data to enhance your experience and personalize the content and advertising you see.
Visit our Privacy Policy to learn more. By continuing to use the site, you agree to this use of cookies and data.
  • In Hungary
  • List of Countries
  • For 7 days
  • Water Temperature
  • Satellite Maps
  • Weather Map
  • News
  • Weather Widgets
  • user-avatar
    Login

    Hourly Weather Huaicheng

    Today, 15 December, Saturday

    Time Temperature Precipitation Wind Pressure Humidity
    00:00 +13°C° 0 mm 1 mps 760 mmHg 80%
    01:00 +12°C° 0 mm 1 mps 760 mmHg 73%
    02:00 +12°C° 0 mm 1 mps 760 mmHg 74%
    03:00 +12°C° 0 mm 1 mps 760 mmHg 74%
    04:00 +12°C° 0 mm 1 mps 760 mmHg 75%
    05:00 +12°C° 0 mm 1 mps 760 mmHg 75%
    06:00 +12°C° 0 mm 1 mps 760 mmHg 75%
    07:00 +13°C° 0 mm 1 mps 760 mmHg 76%
    08:00 +15°C° 0 mm 1 mps 760 mmHg 71%
    09:00 +18°C° 0 mm 1 mps 760 mmHg 66%
    10:00 +20°C° 0 mm 1 mps 760 mmHg 62%
    11:00 +21°C° 0 mm 1 mps 759 mmHg 60%
    12:00 +23°C° 0 mm 1 mps 758 mmHg 58%
    13:00 +22°C° 0 mm 0 mps 757 mmHg 56%
    14:00 +22°C° 0 mm 0 mps 757 mmHg 60%
    15:00 +21°C° 0 mm 0 mps 757 mmHg 64%
    16:00 +20°C° 0 mm 0 mps 757 mmHg 68%
    17:00 +21°C° 0 mm 1 mps 757 mmHg 73%
    18:00 +19°C° 0 mm 1 mps 757 mmHg 78%
    19:00 +18°C° 0 mm 1 mps 757 mmHg 83%
    20:00 +16°C° 0 mm 1 mps 758 mmHg 83%
    21:00 +16°C° 0 mm 1 mps 758 mmHg 84%
    22:00 +15°C° 0 mm 1 mps 758 mmHg 84%
    23:00 +15°C° 0 mm 1 mps 759 mmHg 83%

    Tomorrow, 16 December, Sunday

    Time Temperature Precipitation Wind Pressure Humidity
    00:00 +15°C° 0 mm 1 mps 759 mmHg 82%
    01:00 +15°C° 0 mm 1 mps 759 mmHg 80%
    02:00 +14°C° 0 mm 1 mps 759 mmHg 81%
    03:00 +14°C° 0 mm 1 mps 759 mmHg 81%
    04:00 +14°C° 0 mm 1 mps 759 mmHg 81%
    05:00 +14°C° 0 mm 1 mps 759 mmHg 80%
    06:00 +13°C° 0 mm 1 mps 759 mmHg 80%
    07:00 +13°C° 0 mm 1 mps 759 mmHg 80%
    08:00 +15°C° 0 mm 2 mps 759 mmHg 73%
    09:00 +17°C° 0 mm 2 mps 759 mmHg 66%
    10:00 +19°C° 0 mm 2 mps 760 mmHg 59%
    11:00 +21°C° 0 mm 2 mps 759 mmHg 57%
    12:00 +23°C° 0 mm 2 mps 758 mmHg 54%
    13:00 +24°C° 0 mm 2 mps 757 mmHg 52%
    14:00 +23°C° 0 mm 2 mps 757 mmHg 55%
    15:00 +23°C° 0 mm 1 mps 757 mmHg 59%
    16:00 +22°C° 0 mm 1 mps 756 mmHg 62%
    17:00 +21°C° 0 mm 1 mps 757 mmHg 65%
    18:00 +19°C° 0 mm 1 mps 757 mmHg 68%
    19:00 +16°C° 0 mm 1 mps 757 mmHg 71%
    20:00 +16°C° 0 mm 1 mps 758 mmHg 70%
    21:00 +15°C° 0 mm 1 mps 758 mmHg 69%
    22:00 +15°C° 0 mm 1 mps 758 mmHg 68%
    23:00 +14°C° 0 mm 1 mps 758 mmHg 67%

    Day after tomorrow, 17 December, Monday

    Time Temperature Precipitation Wind Pressure Humidity
    00:00 +14°C° 0 mm 1 mps 758 mmHg 66%
    01:00 +13°C° 0 mm 1 mps 758 mmHg 65%
    02:00 +13°C° 0 mm 1 mps 758 mmHg 65%
    03:00 +12°C° 0 mm 1 mps 758 mmHg 64%
    04:00 +12°C° 0 mm 1 mps 758 mmHg 64%
    05:00 +12°C° 0 mm 1 mps 758 mmHg 63%
    06:00 +12°C° 0 mm 1 mps 758 mmHg 63%
    07:00 +12°C° 0 mm 1 mps 759 mmHg 63%
    08:00 +15°C° 0 mm 1 mps 759 mmHg 56%
    09:00 +18°C° 0 mm 1 mps 759 mmHg 49%
    10:00 +21°C° 0 mm 1 mps 759 mmHg 42%
    11:00 +22°C° 0 mm 1 mps 758 mmHg 40%
    12:00 +23°C° 0 mm 1 mps 757 mmHg 38%
    13:00 +24°C° 0 mm 1 mps 757 mmHg 35%
    14:00 +24°C° 0 mm 1 mps 756 mmHg 39%
    15:00 +23°C° 0 mm 1 mps 756 mmHg 44%
    16:00 +22°C° 0 mm 1 mps 756 mmHg 48%
    17:00 +20°C° 0 mm 1 mps 756 mmHg 51%
    18:00 +19°C° 0 mm 1 mps 757 mmHg 54%
    19:00 +16°C° 0 mm 1 mps 757 mmHg 56%
    20:00 +16°C° 0 mm 1 mps 757 mmHg 58%
    21:00 +15°C° 0 mm 1 mps 757 mmHg 59%
    22:00 +15°C° 0 mm 1 mps 757 mmHg 60%
    23:00 +14°C° 0 mm 1 mps 757 mmHg 61%

    18 December, Tuesday

    Time Temperature Precipitation Wind Pressure Humidity
    00:00 +14°C° 0 mm 1 mps 757 mmHg 61%
    01:00 +14°C° 0 mm 1 mps 757 mmHg 62%
    02:00 +13°C° 0 mm 1 mps 757 mmHg 62%
    03:00 +13°C° 0 mm 1 mps 756 mmHg 62%
    04:00 +13°C° 0 mm 1 mps 756 mmHg 63%
    05:00 +13°C° 0 mm 1 mps 757 mmHg 62%
    06:00 +13°C° 0 mm 1 mps 757 mmHg 61%
    07:00 +14°C° 0 mm 1 mps 757 mmHg 61%
    08:00 +16°C° 0 mm 1 mps 758 mmHg 52%
    09:00 +20°C° 0 mm 1 mps 758 mmHg 43%
    10:00 +23°C° 0 mm 1 mps 758 mmHg 34%
    11:00 +23°C° 0 mm 1 mps 757 mmHg 33%
    12:00 +24°C° 0 mm 1 mps 756 mmHg 32%
    13:00 +25°C° 0 mm 1 mps 755 mmHg 31%
    14:00 +24°C° 0 mm 1 mps 755 mmHg 37%
    15:00 +23°C° 0 mm 1 mps 754 mmHg 43%
    16:00 +22°C° 0 mm 1 mps 754 mmHg 49%
    17:00 +21°C° 0 mm 1 mps 755 mmHg 53%
    18:00 +19°C° 0 mm 1 mps 755 mmHg 56%
    19:00 +18°C° 0 mm 1 mps 755 mmHg 60%
    20:00 +16°C° 0 mm 0 mps 756 mmHg 61%
    21:00 +15°C° 0 mm 0 mps 756 mmHg 62%
    22:00 +15°C° 0 mm 0 mps 756 mmHg 63%
    23:00 +15°C° 0 mm 0 mps 756 mmHg 63%

    19 December, Wednesday

    Time Temperature Precipitation Wind Pressure Humidity
    00:00 +14°C° 0 mm 0 mps 755 mmHg 64%
    01:00 +14°C° 0 mm 0 mps 755 mmHg 64%
    02:00 +14°C° 0 mm 0 mps 755 mmHg 66%
    03:00 +14°C° 0 mm 0 mps 755 mmHg 67%
    04:00 +14°C° 0 mm 0 mps 754 mmHg 69%
    05:00 +14°C° 0 mm 0 mps 755 mmHg 71%
    06:00 +15°C° 0 mm 0 mps 755 mmHg 73%
    07:00 +16°C° 0 mm 1 mps 756 mmHg 74%
    08:00 +18°C° 0 mm 1 mps 756 mmHg 75%
    09:00 +19°C° 0 mm 1 mps 756 mmHg 76%
    10:00 +20°C° 0 mm 1 mps 756 mmHg 77%
    11:00 +20°C° 0 mm 1 mps 755 mmHg 76%
    12:00 +21°C° 0 mm 1 mps 754 mmHg 76%
    13:00 +21°C° 0 mm 1 mps 753 mmHg 75%
    14:00 +21°C° 0 mm 1 mps 753 mmHg 77%
    15:00 +21°C° 0 mm 1 mps 753 mmHg 80%
    16:00 +21°C° 0 mm 1 mps 753 mmHg 82%
    17:00 +20°C° 0.1 mm 1 mps 753 mmHg 84%
    18:00 +20°C° 0.1 mm 1 mps 753 mmHg 86%
    19:00 +20°C° 0.1 mm 1 mps 754 mmHg 88%
    20:00 +19°C° 0 mm 1 mps 754 mmHg 89%
    21:00 +19°C° 0 mm 1 mps 754 mmHg 89%
    22:00 +19°C° 0 mm 1 mps 754 mmHg 90%
    23:00 +19°C° 0 mm 1 mps 753 mmHg 91%

    20 December, Thursday

    Time Temperature Precipitation Wind Pressure Humidity
    00:00 +19°C° 0 mm 1 mps 753 mmHg 91%
    01:00 +19°C° 0 mm 1 mps 753 mmHg 92%
    02:00 +19°C° 0.1 mm 1 mps 752 mmHg 92%
    03:00 +19°C° 0.1 mm 1 mps 752 mmHg 93%
    04:00 +17°C° 0.1 mm 0 mps 752 mmHg 94%
    05:00 +19°C° 0.1 mm 1 mps 752 mmHg 94%
    06:00 +19°C° 0.1 mm 1 mps 752 mmHg 95%
    07:00 +20°C° 0.1 mm 1 mps 753 mmHg 95%
    08:00 +21°C° 0 mm 1 mps 753 mmHg 91%
    09:00 +22°C° 0 mm 1 mps 752 mmHg 88%
    10:00 +23°C° 0 mm 1 mps 752 mmHg 84%
    11:00 +23°C° 0.1 mm 1 mps 752 mmHg 85%
    12:00 +23°C° 0.1 mm 1 mps 751 mmHg 85%
    13:00 +23°C° 0.1 mm 1 mps 750 mmHg 86%
    14:00 +23°C° 0.1 mm 1 mps 750 mmHg 88%
    15:00 +23°C° 0.1 mm 1 mps 750 mmHg 90%
    16:00 +22°C° 0.1 mm 1 mps 750 mmHg 93%
    17:00 +22°C° 0.2 mm 1 mps 750 mmHg 93%
    18:00 +22°C° 0.2 mm 1 mps 751 mmHg 94%
    19:00 +22°C° 0.2 mm 1 mps 751 mmHg 95%
    20:00 +22°C° 0.2 mm 1 mps 751 mmHg 95%
    21:00 +22°C° 0.2 mm 1 mps 751 mmHg 96%
    22:00 +22°C° 0.2 mm 1 mps 751 mmHg 96%
    23:00 +22°C° 0.2 mm 1 mps 751 mmHg 96%
    Show more